Wind_Speed
14 12 13 13 13 14 15 16 18 18 19 19 19 19 19 19 19 20 20 20 20 20 20 20 18 17 17 16 16 15 16 17 16 16 16 16 16 16 16 16 16 16 16
15 14 14 14 14 14 14 13 14 16 17 18 18 19 18 19 19 19 20 20 20 21 21 22 22 21 21 20 19 18 16 16 17 17 17 17 17 17 17 17 17 16 16
16 15 14 14 15 14 15 13 14 15 17 18 19 19 20 20 19 19 20 20 20 21 22 21 21 22 21 21 20 20 19 18 17 17 17 17 18 18 17 16 16 16 18
16 16 15 16 16 14 14 16 15 15 15 15 15 16 17 17 17 17 18 19 19 20 20 20 20 20 19 20 19 18 18 19 19 18 18 17 18 18 17 17 18 19 17
17 16 16 17 16 14 12 15 15 15 15 15 16 16 17 18 19 19 20 20 21 21 21 21 20 19 18 17 17 18 19 19 20 20 20 20 19 18 20 21 19 18 18
18 18 18 17 16 15 14 14 16 16 17 18 19 20 20 20 20 21 21 21 21 22 22 22 22 22 20 19 19 18 18 18 19 19 20 20 20 20 21 21 20 20 20
21 20 19 19 18 18 18 18 18 19 21 22 22 22 21 21 21 21 22 21 22 22 22 22 21 21 21 21 20 19 18 18 18 19 19 20 20 20 21 21 21 22 23
23 22 22 21 21 22 22 22 22 23 22 23 23 22 22 21 21 20 21 20 21 20 20 20 20 20 20 19 19 18 18 18 18 18 18 19 19 19 21 22 23 24 26
25 24 24 25 25 25 25 25 25 25 24 22 23 23 22 21 21 20 21 20 20 20 20 20 20 20 19 18 19 19 19 18 19 19 20 20 20 21 23 23 25 27 29
27 27 28 28 28 29 28 27 27 27 26 24 23 23 23 22 22 22 22 22 21 21 21 20 21 21 21 21 22 22 22 21 21 21 23 23 22 23 24 26 26 28 30
29 30 30 31 30 29 29 30 29 28 28 26 26 25 24 24 23 23 24 24 23 23 22 23 23 23 23 24 24 24 23 23 24 23 24 24 24 25 26 27 28 28 28
31 31 31 32 31 30 30 30 29 28 27 28 27 28 26 26 25 25 25 24 24 24 23 23 24 24 25 25 24 25 25 26 26 24 26 26 26 27 27 27 27 27 26
29 29 29 29 30 30 29 29 29 29 30 30 30 29 30 28 27 26 26 25 24 23 23 24 25 26 25 26 26 26 26 25 25 24 24 24 23 24 24 25 25 27 27
27 28 28 29 29 29 30 31 30 31 31 32 32 31 31 31 29 27 26 26 25 24 24 25 26 27 26 27 27 27 26 25 24 22 24 22 23 23 24 26 29 29 30
28 30 31 31 31 31 32 31 31 32 32 33 34 33 33 33 31 29 28 27 26 26 27 27 27 28 28 27 26 26 26 26 25 25 22 23 24 25 26 29 29 28 28
30 31 31 31 33 33 32 32 31 32 33 34 34 35 36 35 32 30 30 28 29 28 30 30 29 29 29 28 28 27 26 26 25 25 23 26 25 26 25 23 23 22 22
31 32 31 33 33 32 32 32 34 34 34 36 36 36 36 36 35 33 32 32 32 33 32 32 32 31 30 30 29 28 28 26 27 26 26 25 25 23 21 21 20 20 20
34 34 35 34 33 32 33 35 36 37 37 36 37 38 38 39 38 38 37 36 33 35 35 35 36 36 34 33 32 30 29 29 28 27 27 26 25 24 22 22 21 21 22
37 36 36 36 35 36 36 38 39 39 39 39 40 40 40 42 42 42 40 40 40 38 37 38 38 39 38 36 35 33 33 32 30 28 28 29 27 26 26 27 25 24 25
37 36 35 36 36 36 38 40 40 40 42 43 43 42 43 44 44 46 47 45 45 44 42 41 42 43 42 39 38 37 35 34 32 31 31 32 31 31 31 31 30 29 28
38 37 37 38 38 37 38 40 42 40 45 46 48 48 47 47 47 46 46 47 47 48 48 48 48 47 45 44 43 41 39 37 35 34 35 34 35 35 34 33 33 32 33
38 38 38 38 39 39 41 42 44 41 44 46 48 49 50 49 48 49 48 49 49 50 51 52 52 51 50 48 47 47 41 41 40 39 38 38 37 36 35 35 35 35 36
39 38 38 39 40 41 42 43 44 45 44 46 46 48 51 53 53 53 53 53 54 54 54 54 55 55 54 53 50 48 45 43 43 44 43 42 41 36 37 37 38 38 38
40 39 39 40 41 41 42 42 43 44 44 44 45 47 50 54 55 55 55 55 56 56 56 57 52 53 53 51 52 51 49 47 46 46 45 47 45 38 38 41 41 40 40
40 40 40 40 40 40 40 40 42 43 44 45 46 47 48 51 54 58 59 59 58 59 60 60 57 56 57 56 54 55 53 51 51 49 48 49 44 42 41 43 43 43 43
39 39 40 39 38 38 40 41 42 43 44 45 46 48 49 51 52 53 55 59 63 63 63 63 62 60 58 58 57 57 56 54 52 51 51 48 49 48 47 47 43 45 46
Wind_Direction
244 250 254 258 262 267 269 271 274 277 280 281 281 283 284 284 282 282 285 286 287 285 284 286 288 287 286 287 289 290 290 290 289 286 285 287 290 291 293 294 296 298 301
242 243 250 253 258 265 267 268 269 272 276 276 278 281 284 286 288 289 289 288 286 285 285 285 285 285 286 286 285 284 282 281 282 285 289 291 292 293 292 295 298 299 301
243 246 248 256 263 270 276 274 277 278 276 275 276 277 278 279 282 284 286 288 289 289 287 285 285 286 285 286 287 288 287 284 283 286 288 287 288 289 294 296 295 297 298
251 255 260 262 263 264 275 280 281 283 282 282 282 282 283 285 286 287 288 290 291 291 290 290 288 286 286 286 287 288 288 288 289 289 287 288 288 292 291 289 293 295 294
248 254 259 262 266 265 261 273 275 277 280 282 283 284 285 287 288 289 288 290 291 291 293 293 295 296 295 294 294 295 294 291 290 290 291 290 287 285 285 287 290 288 288
252 256 258 261 263 263 260 262 271 274 275 277 281 284 286 287 288 287 288 287 287 290 290 291 292 293 293 293 292 289 287 288 288 287 287 287 288 288 289 291 289 288 287
250 250 252 256 260 264 265 265 268 274 279 280 280 282 283 284 286 287 287 288 288 288 288 289 290 291 291 290 291 290 291 291 291 290 289 289 290 289 290 287 286 284 286
244 247 250 253 257 258 263 270 274 275 276 279 280 280 279 282 286 286 287 287 287 286 286 287 285 285 285 286 289 291 292 293 293 291 290 290 290 289 289 288 287 287 287
237 244 251 256 262 267 271 275 277 275 274 274 278 282 285 286 287 287 286 286 287 288 287 288 287 288 289 290 289 290 290 291 292 293 293 294 293 291 290 287 285 284 285
241 244 250 257 263 269 275 276 277 278 279 282 282 282 284 284 284 285 286 287 287 287 288 289 289 288 287 285 284 285 287 288 291 294 294 292 291 291 290 291 291 289 290
250 255 259 262 265 269 273 276 277 279 284 284 283 282 281 280 281 284 284 284 285 286 288 288 288 287 286 285 286 286 286 287 290 289 289 290 291 291 292 292 292 292 292
253 258 264 269 272 273 274 274 276 278 280 281 281 282 281 280 280 280 282 281 282 282 283 283 283 283 283 284 285 285 286 286 286 287 287 288 290 291 293 293 296 295 296
253 256 259 263 266 268 269 271 274 277 280 281 282 279 281 281 281 281 280 279 278 279 280 281 281 282 284 285 284 284 285 285 285 287 284 286 289 291 292 294 296 298 297
249 253 255 258 259 263 266 269 273 276 278 280 281 283 282 281 281 279 278 278 279 280 280 279 281 283 285 286 286 287 287 287 287 286 285 286 287 288 291 291 292 293 291
243 247 250 255 259 261 263 266 270 275 279 282 283 283 280 280 281 282 280 279 279 279 278 279 280 282 283 285 286 285 285 285 285 285 283 285 284 286 288 290 295 295 290
247 250 253 257 260 262 267 270 272 274 274 276 277 280 281 282 283 284 283 280 278 276 276 278 279 280 284 284 284 283 282 281 281 282 281 284 285 286 290 295 299 302 303
250 253 255 257 260 264 268 273 275 274 275 275 276 277 278 280 282 284 282 280 279 277 276 277 280 281 280 280 280 280 280 278 277 279 281 280 283 282 285 290 296 301 305
247 249 253 259 262 265 266 269 273 276 277 277 277 278 279 278 278 279 279 279 277 279 279 280 281 281 280 279 278 277 277 275 276 278 281 282 278 276 278 284 290 297 300
247 250 255 261 266 270 274 276 278 279 281 281 279 280 281 279 278 276 274 275 275 275 277 277 276 277 276 277 278 276 275 274 275 276 279 282 280 275 278 281 284 288 292
251 255 259 263 265 267 269 272 274 280 281 280 280 279 279 279 280 278 277 274 273 274 274 274 273 272 274 277 275 273 273 274 274 276 277 279 280 280 279 279 280 283 285
250 252 255 258 263 266 269 271 273 275 276 278 279 279 279 280 280 279 278 278 277 274 273 274 274 274 274 273 273 274 271 272 272 274 275 277 277 280 281 283 284 284 285
251 252 256 260 263 266 271 275 276 275 277 278 278 279 279 278 277 277 276 274 273 273 272 271 272 272 273 273 272 271 271 270 272 271 273 274 276 278 279 279 282 283 285
253 256 259 262 265 269 273 274 275 276 273 274 274 274 275 276 276 276 276 275 273 272 271 269 269 269 271 271 272 269 271 272 270 271 272 273 270 272 276 278 279 280 283
259 262 265 268 270 271 272 273 274 275 275 273 271 269 271 274 276 276 275 275 276 274 273 270 265 265 266 268 268 268 268 268 269 271 273 276 270 268 275 277 279 279 281
264 267 270 271 271 272 272 272 272 273 272 272 272 271 271 270 273 275 276 274 271 272 272 269 267 265 264 264 265 264 265 266 268 270 271 274 275 276 275 276 277 278 278
265 268 269 271 272 273 274 274 274 273 273 274 273 273 273 272 271 271 271 272 273 272 269 269 267 266 264 263 261 262 262 264 266 268 267 269 271 273 276 276 278 281 279
Height
5875 5877 5877 5878 5878 5879 5879 5879 5880 5880 5880 5881 5881 5881 5881 5881 5880 5880 5879 5879 5879 5880 5880 5879 5879 5879 5878 5877 5876 5876 5876 5875 5874 5873 5873 5873 5873 5872 5872 5871 5871 5870 5869
5873 5874 5875 5876 5876 5877 5878 5879 5879 5878 5879 5879 5879 5879 5879 5879 5879 5878 5878 5878 5878 5878 5878 5878 5877 5877 5876 5875 5875 5874 5873 5873 5872 5872 5871 5871 5871 5870 5870 5869 5868 5868 5867
5870 5872 5873 5873 5874 5875 5875 5876 5877 5877 5877 5877 5877 5877 5877 5878 5877 5877 5877 5876 5876 5876 5875 5875 5875 5874 5874 5873 5872 5872 5871 5871 5870 5869 5869 5868 5868 5868 5867 5866 5866 5866 5865
5868 5869 5870 5870 5871 5872 5873 5874 5875 5875 5875 5875 5875 5875 5875 5875 5875 5875 5875 5874 5874 5874 5873 5873 5873 5872 5872 5871 5870 5869 5868 5867 5867 5867 5866 5866 5865 5865 5864 5863 5863 5862 5862
5865 5866 5867 5867 5868 5870 5871 5871 5872 5873 5873 5873 5873 5873 5873 5873 5872 5872 5872 5872 5871 5871 5871 5870 5869 5869 5869 5868 5867 5867 5866 5865 5865 5864 5863 5863 5862 5862 5861 5861 5860 5859 5859
5861 5862 5863 5864 5866 5867 5868 5869 5869 5870 5870 5870 5870 5870 5870 5870 5869 5869 5869 5868 5868 5867 5867 5867 5866 5866 5865 5864 5864 5863 5862 5862 5861 5861 5860 5860 5859 5859 5858 5858 5857 5857 5856
5858 5860 5861 5862 5863 5864 5864 5866 5867 5867 5867 5867 5867 5867 5866 5866 5866 5866 5865 5865 5865 5864 5864 5863 5863 5862 5862 5861 5860 5859 5859 5858 5858 5858 5857 5857 5856 5856 5855 5854 5854 5854 5853
5854 5856 5857 5858 5859 5860 5861 5862 5863 5863 5864 5863 5863 5863 5863 5863 5863 5863 5863 5863 5863 5862 5861 5860 5860 5859 5858 5858 5857 5856 5855 5855 5854 5854 5853 5853 5853 5853 5852 5851 5851 5851 5850
5851 5852 5853 5855 5856 5857 5858 5858 5859 5860 5860 5860 5860 5860 5859 5859 5859 5859 5859 5859 5859 5859 5858 5858 5857 5856 5855 5854 5853 5852 5852 5851 5851 5850 5850 5850 5850 5849 5848 5848 5847 5846 5845
5848 5849 5851 5852 5853 5853 5854 5855 5856 5855 5856 5856 5857 5857 5857 5856 5856 5856 5856 5856 5855 5855 5854 5854 5853 5852 5852 5850 5850 5849 5848 5848 5848 5848 5847 5846 5846 5845 5843 5843 5842 5841 5840
5845 5846 5847 5848 5849 5850 5851 5851 5852 5852 5852 5852 5852 5853 5853 5853 5853 5852 5852 5852 5852 5851 5850 5850 5849 5848 5848 5847 5847 5846 5845 5845 5844 5844 5842 5841 5841 5840 5839 5838 5837 5836 5835
5841 5842 5843 5844 5845 5846 5847 5848 5848 5848 5848 5849 5849 5849 5849 5849 5849 5849 5848 5848 5848 5847 5846 5846 5845 5844 5844 5844 5843 5842 5842 5841 5840 5840 5839 5837 5837 5836 5835 5834 5833 5831 5830
5837 5838 5839 5840 5841 5842 5842 5843 5843 5843 5843 5844 5844 5844 5844 5844 5845 5844 5844 5844 5843 5843 5842 5841 5840 5840 5839 5839 5839 5838 5837 5836 5835 5835 5834 5833 5832 5831 5830 5829 5828 5827 5825
5832 5833 5834 5835 5837 5837 5837 5838 5838 5838 5839 5839 5839 5840 5840 5840 5840 5839 5840 5839 5838 5838 5837 5837 5835 5835 5834 5834 5833 5833 5832 5831 5830 5830 5830 5830 5828 5827 5826 5825 5823 5821 5820
5827 5828 5829 5830 5831 5832 5832 5833 5833 5833 5834 5834 5834 5834 5834 5834 5835 5835 5835 5835 5834 5833 5832 5831 5831 5830 5829 5828 5827 5827 5827 5826 5825 5825 5826 5824 5823 5822 5820 5819 5817 5815 5813
5822 5823 5824 5825 5826 5826 5828 5828 5829 5829 5829 5828 5829 5829 5830 5830 5830 5829 5828 5829 5828 5828 5827 5826 5825 5825 5825 5823 5823 5822 5821 5821 5820 5820 5821 5819 5818 5817 5815 5814 5813 5811 5809
5815 5817 5818 5819 5821 5822 5823 5823 5823 5824 5824 5823 5823 5824 5823 5823 5823 5823 5823 5823 5822 5822 5821 5820 5819 5819 5819 5818 5817 5817 5816 5815 5815 5814 5814 5814 5812 5811 5810 5809 5808 5806 5805
5809 5810 5811 5813 5815 5816 5817 5817 5818 5818 5819 5818 5818 5818 5818 5817 5817 5817 5817 5816 5816 5815 5815 5815 5814 5813 5813 5813 5812 5811 5810 5809 5809 5809 5808 5808 5807 5806 5805 5804 5803 5802 5801
5803 5805 5806 5807 5809 5810 5811 5811 5811 5812 5813 5812 5812 5812 5812 5810 5810 5810 5809 5809 5808 5808 5809 5808 5807 5807 5806 5806 5806 5806 5805 5804 5803 5803 5802 5801 5801 5801 5800 5798 5798 5797 5796
5798 5799 5801 5802 5803 5804 5804 5804 5805 5805 5804 5803 5803 5804 5803 5802 5802 5802 5801 5802 5800 5800 5801 5801 5799 5798 5799 5799 5798 5798 5798 5798 5798 5797 5796 5795 5795 5794 5793 5792 5790 5790 5789
5791 5793 5794 5795 5797 5797 5798 5798 5798 5800 5796 5795 5795 5793 5794 5794 5793 5792 5793 5792 5792 5792 5792 5792 5792 5791 5791 5790 5790 5790 5790 5790 5791 5790 5789 5788 5788 5786 5785 5784 5783 5782 5782
5785 5786 5788 5789 5790 5791 5790 5791 5790 5791 5790 5788 5786 5785 5784 5783 5783 5782 5782 5781 5781 5781 5781 5781 5781 5781 5781 5781 5780 5780 5782 5782 5782 5781 5780 5780 5779 5778 5777 5776 5775 5774 5773
5777 5779 5781 5782 5782 5783 5783 5782 5782 5781 5781 5780 5778 5776 5774 5771 5771 5771 5771 5770 5769 5769 5770 5769 5769 5769 5770 5770 5770 5770 5771 5772 5772 5771 5771 5770 5769 5768 5767 5766 5765 5765 5764
5768 5771 5773 5774 5774 5774 5773 5773 5772 5771 5771 5770 5768 5767 5765 5762 5760 5759 5759 5758 5758 5757 5757 5758 5758 5758 5757 5759 5758 5759 5759 5760 5761 5762 5761 5759 5758 5757 5756 5756 5755 5755 5754
5760 5762 5763 5764 5764 5764 5764 5763 5762 5761 5760 5759 5757 5756 5755 5753 5751 5748 5745 5745 5745 5745 5745 5746 5746 5746 5745 5745 5747 5747 5747 5748 5749 5750 5751 5749 5747 5746 5746 5746 5745 5744 5743
5752 5753 5754 5754 5754 5754 5753 5753 5752 5751 5749 5747 5746 5744 5742 5741 5739 5739 5736 5733 5730 5730 5731 5731 5731 5731 5733 5733 5734 5735 5736 5737 5738 5737 5737 5739 5737 5736 5735 5735 5734 5733 5732